User: anonymous   Login
Location: Caltech
(34.1382°N, 118.1253°W)
Time: 12:17:14
(UTC-07:00)
Language:

OPAL - Orbit

View from above orbital plane
View from above orbital plane
View from above satellite
View from above satellite

Ground track
Ground track

The orbit data is extracted from the following two-line orbital elements,

1 26063U 00004C   18170.79375730 -.00000022 +00000-0 +12706-4 0  9994
2 26063 100.1911 247.2318 0036338 353.4953 006.5751 14.36699992963969
Epoch (UTC): 19 June 2018 19:03:00
Eccentricity: 0.0036338
inclination: 100.1911°
perigee height: 743 km
apogee height: 795 km
right ascension of ascending node: 247.2318°
argument of perigee: 353.4953°
revolutions per day: 14.36699992
mean anomaly at epoch: 6.5751°
orbit number at epoch: 96396

The dashed part of the orbit path shows where the satellite is in the earth's shadow,  

DLR